Location: Artiguedieu
(43.5000°N, 0.5454°E)
Time: 02:05:37
(UTC+00:00)

Transit 2A Rocket - Pass Details

Date: 05 August 2021
Orbit: 586 x 916 km, 66.7° (Epoch: 16 September)

Event Time Altitude Azimuth Distance (km) Brightness Sun altitude
Rises 19:38:35 0° 338° (NNW) 3,230 9.1 -4.6°
Reaches altitude 10° 19:42:00 10° 1° (N) 2,373 7.9 -5.2°
Maximum altitude 19:45:09 15° 36° (NE) 2,084 7.2 -5.7°
Drops below altitude 10° 19:48:25 10° 71° (ENE) 2,486 7.3 -6.2°
Enters shadow 19:51:06 - 89° (E) 3,173 7.7 -6.6°
Sets 19:52:07 0° 94° (E) 3,475 - -6.8°
